Time,TemperatureF,DewpointF,PressureIn,WindDirection,WindDirectionDegrees,WindSpeedMPH,WindSpeedGustMPH,Humidity,HourlyPrecipIn,Conditions,Clouds,dailyrainin,SoftwareType,DateUTC
2013-03-23 00:03:00,30.6,19.9,29.91,North,349,6.3,6.3,64,0.00,,,0.00,VWS V12.08,2013-03-22 23:03:00,
2013-03-23 00:08:00,30.6,19.9,29.91,North,357,5.8,7.6,64,0.00,,,0.00,VWS V12.08,2013-03-22 23:08:00,
2013-03-23 00:13:00,30.4,19.7,29.91,North,353,4.0,5.8,64,0.00,,,0.00,VWS V12.08,2013-03-22 23:13:00,
2013-03-23 00:18:00,30.4,19.7,29.91,North,357,0.0,5.8,64,0.00,,,0.00,VWS V12.08,2013-03-22 23:18:00,
2013-03-23 00:23:00,30.0,19.3,29.91,North,357,2.7,2.7,64,0.00,,,0.00,VWS V12.08,2013-03-22 23:23:00,
2013-03-23 00:28:00,29.7,19.0,29.91,North,357,0.0,2.7,64,0.00,,,0.00,VWS V12.08,2013-03-22 23:28:00,
2013-03-23 00:33:00,29.3,18.6,29.94,North,357,2.7,2.7,64,0.00,,,0.00,VWS V12.08,2013-03-22 23:33:00,
2013-03-23 00:38:00,28.9,18.3,29.94,North,357,0.0,2.7,64,0.00,,,0.00,VWS V12.08,2013-03-22 23:38:00,
2013-03-23 00:43:00,28.6,18.0,29.94,North,357,2.7,3.1,64,0.00,,,0.00,VWS V12.08,2013-03-22 23:43:00,
2013-03-23 00:48:00,28.2,17.6,29.94,North,357,0.0,3.1,64,0.00,,,0.00,VWS V12.08,2013-03-22 23:48:00,
2013-03-23 00:53:00,28.0,17.8,29.94,North,357,2.2,2.7,65,0.00,,,0.00,VWS V12.08,2013-03-22 23:53:00,
2013-03-23 00:57:00,27.9,17.6,29.94,North,357,0.0,3.1,65,0.00,,,0.00,VWS V12.08,2013-03-22 23:57:00,
2013-03-23 01:02:00,27.9,17.6,29.94,North,357,0.0,2.2,65,0.00,,,0.00,VWS V12.08,2013-03-23 00:02:00,
2013-03-23 01:07:00,27.7,17.5,29.94,North,357,0.0,2.2,65,0.00,,,0.00,VWS V12.08,2013-03-23 00:07:00,
2013-03-23 01:12:00,27.7,17.8,29.94,North,357,0.0,2.7,66,0.00,,,0.00,VWS V12.08,2013-03-23 00:12:00,
2013-03-23 01:17:00,27.7,17.8,29.94,North,357,0.0,2.7,66,0.00,,,0.00,VWS V12.08,2013-03-23 00:17:00,
2013-03-23 01:22:00,27.7,17.8,29.94,North,357,0.0,0.0,66,0.00,,,0.00,VWS V12.08,2013-03-23 00:22:00,
2013-03-23 01:27:00,27.7,18.2,29.94,North,357,0.0,0.0,67,0.00,,,0.00,VWS V12.08,2013-03-23 00:27:00,
2013-03-23 01:32:00,27.7,18.2,29.94,North,357,0.0,0.0,67,0.00,,,0.00,VWS V12.08,2013-03-23 00:32:00,
2013-03-23 01:37:00,27.9,18.7,29.94,North,357,0.0,2.7,68,0.00,,,0.00,VWS V12.08,2013-03-23 00:37:00,
2013-03-23 01:42:00,27.9,18.7,29.94,North,357,0.0,2.7,68,0.00,,,0.00,VWS V12.08,2013-03-23 00:42:00,
2013-03-23 01:47:00,28.2,19.4,29.94,North,357,0.0,2.7,69,0.00,,,0.00,VWS V12.08,2013-03-23 00:47:00,
2013-03-23 01:52:00,28.4,19.5,29.94,North,357,0.0,0.0,69,0.00,,,0.00,VWS V12.08,2013-03-23 00:52:00,
2013-03-23 01:57:00,28.4,19.5,29.94,North,357,0.0,0.0,69,0.00,,,0.00,VWS V12.08,2013-03-23 00:57:00,
2013-03-23 02:02:00,28.2,19.4,29.94,North,357,0.0,2.7,69,0.00,,,0.00,VWS V12.08,2013-03-23 01:02:00,
2013-03-23 02:07:00,28.0,19.2,29.94,North,357,0.0,2.7,69,0.00,,,0.00,VWS V12.08,2013-03-23 01:07:00,
2013-03-23 02:12:00,27.9,19.0,29.94,North,357,0.0,0.0,69,0.00,,,0.00,VWS V12.08,2013-03-23 01:12:00,
2013-03-23 02:17:00,27.9,19.0,29.94,North,357,0.0,0.0,69,0.00,,,0.00,VWS V12.08,2013-03-23 01:17:00,
2013-03-23 02:22:00,27.9,19.4,29.94,North,357,0.0,2.2,70,0.00,,,0.00,VWS V12.08,2013-03-23 01:22:00,
2013-03-23 02:27:00,27.9,19.4,29.94,North,357,0.0,2.2,70,0.00,,,0.00,VWS V12.08,2013-03-23 01:27:00,
2013-03-23 02:32:00,27.9,19.4,29.94,North,357,0.0,0.0,70,0.00,,,0.00,VWS V12.08,2013-03-23 01:32:00,
2013-03-23 02:37:00,28.0,19.5,29.94,North,357,2.7,2.7,70,0.00,,,0.00,VWS V12.08,2013-03-23 01:37:00,
2013-03-23 02:42:00,28.0,19.5,29.94,North,357,0.0,3.1,70,0.00,,,0.00,VWS V12.08,2013-03-23 01:42:00,
2013-03-23 02:47:00,28.0,19.5,29.94,North,357,0.0,3.1,70,0.00,,,0.00,VWS V12.08,2013-03-23 01:47:00,
2013-03-23 02:52:00,27.9,19.4,29.94,North,357,0.0,2.7,70,0.00,,,0.00,VWS V12.08,2013-03-23 01:52:00,
2013-03-23 02:57:00,27.7,19.2,29.94,North,357,0.0,2.7,70,0.00,,,0.00,VWS V12.08,2013-03-23 01:57:00,
2013-03-23 03:02:00,27.5,19.0,29.94,North,357,0.0,0.0,70,0.00,,,0.00,VWS V12.08,2013-03-23 02:02:00,
2013-03-23 03:07:00,27.1,18.7,29.94,North,357,0.0,0.0,70,0.00,,,0.00,VWS V12.08,2013-03-23 02:07:00,
2013-03-23 03:12:00,27.1,19.0,29.94,North,357,0.0,0.0,71,0.00,,,0.00,VWS V12.08,2013-03-23 02:12:00,
2013-03-23 03:17:00,27.0,18.8,29.94,North,357,0.0,0.0,71,0.00,,,0.00,VWS V12.08,2013-03-23 02:17:00,
2013-03-23 03:22:00,26.8,18.6,29.94,North,357,0.0,0.0,71,0.00,,,0.00,VWS V12.08,2013-03-23 02:22:00,
2013-03-23 03:27:00,26.8,18.6,29.94,North,357,0.0,0.0,71,0.00,,,0.00,VWS V12.08,2013-03-23 02:27:00,
2013-03-23 03:32:00,26.8,18.6,29.94,North,357,0.0,0.0,71,0.00,,,0.00,VWS V12.08,2013-03-23 02:32:00,
2013-03-23 03:37:00,26.8,19.0,29.94,North,357,0.0,0.0,72,0.00,,,0.00,VWS V12.08,2013-03-23 02:37:00,
2013-03-23 03:42:00,26.6,18.8,29.94,North,357,0.0,0.0,72,0.00,,,0.00,VWS V12.08,2013-03-23 02:42:00,
2013-03-23 03:47:00,26.6,18.8,29.94,North,357,0.0,0.0,72,0.00,,,0.00,VWS V12.08,2013-03-23 02:47:00,
2013-03-23 03:52:00,26.6,18.8,29.94,North,357,2.2,2.7,72,0.00,,,0.00,VWS V12.08,2013-03-23 02:52:00,
2013-03-23 03:57:00,27.0,19.1,29.94,North,357,2.2,3.1,72,0.00,,,0.00,VWS V12.08,2013-03-23 02:57:00,
2013-03-23 04:02:00,27.1,19.6,29.94,North,357,2.7,3.1,73,0.00,,,0.00,VWS V12.08,2013-03-23 03:02:00,
2013-03-23 04:07:00,27.5,20.0,29.94,North,357,3.1,3.6,73,0.00,,,0.00,VWS V12.08,2013-03-23 03:07:00,
2013-03-23 04:12:00,27.9,20.3,29.94,North,357,0.0,2.2,73,0.00,,,0.00,VWS V12.08,2013-03-23 03:12:00,
2013-03-23 04:17:00,28.0,20.5,29.94,North,357,0.0,2.2,73,0.00,,,0.00,VWS V12.08,2013-03-23 03:17:00,
2013-03-23 04:22:00,28.0,20.5,29.97,North,357,0.0,2.7,73,0.00,,,0.00,VWS V12.08,2013-03-23 03:22:00,
2013-03-23 04:27:00,28.2,20.7,29.97,North,357,2.2,2.7,73,0.00,,,0.00,VWS V12.08,2013-03-23 03:27:00,
2013-03-23 04:32:00,28.6,21.0,29.97,North,357,0.0,0.0,73,0.00,,,0.00,VWS V12.08,2013-03-23 03:32:00,
2013-03-23 04:37:00,28.6,21.4,29.97,North,357,2.7,4.0,74,0.00,,,0.00,VWS V12.08,2013-03-23 03:37:00,
2013-03-23 04:42:00,28.8,21.5,29.97,North,357,2.7,3.6,74,0.00,,,0.00,VWS V12.08,2013-03-23 03:42:00,
2013-03-23 04:47:00,28.8,21.5,29.97,North,357,3.6,4.0,74,0.00,,,0.00,VWS V12.08,2013-03-23 03:47:00,
2013-03-23 04:52:00,28.8,21.5,29.97,North,357,2.7,3.1,74,0.00,,,0.00,VWS V12.08,2013-03-23 03:52:00,
2013-03-23 04:57:00,28.9,21.7,29.97,North,357,0.0,3.6,74,0.00,,,0.00,VWS V12.08,2013-03-23 03:57:00,
2013-03-23 05:00:00,28.9,21.7,29.97,North,357,0.0,3.6,74,0.00,,,0.00,VWS V12.08,2013-03-23 04:00:00,
2013-03-23 05:05:00,29.1,22.2,29.97,North,357,2.7,3.6,75,0.00,,,0.00,VWS V12.08,2013-03-23 04:05:00,
2013-03-23 05:10:00,29.3,22.4,29.97,ESE,102,0.0,3.1,75,0.00,,,0.00,VWS V12.08,2013-03-23 04:10:00,
2013-03-23 05:15:00,29.5,22.5,29.97,ESE,103,2.2,4.0,75,0.00,,,0.00,VWS V12.08,2013-03-23 04:15:00,
2013-03-23 05:20:00,29.5,22.5,29.97,East,82,4.0,4.0,75,0.00,,,0.00,VWS V12.08,2013-03-23 04:20:00,
2013-03-23 05:25:00,29.5,22.9,29.97,East,86,6.7,6.7,76,0.00,,,0.00,VWS V12.08,2013-03-23 04:25:00,
2013-03-23 05:30:00,29.7,23.0,29.97,East,100,6.3,6.3,76,0.00,,,0.00,VWS V12.08,2013-03-23 04:30:00,
2013-03-23 05:35:00,29.7,23.0,29.97,East,87,5.4,7.6,76,0.00,,,0.00,VWS V12.08,2013-03-23 04:35:00,
2013-03-23 05:40:00,29.7,23.0,29.97,ESE,111,8.7,8.7,76,0.00,,,0.00,VWS V12.08,2013-03-23 04:40:00,
2013-03-23 05:45:00,29.7,22.7,29.97,East,91,6.3,8.7,75,0.00,,,0.00,VWS V12.08,2013-03-23 04:45:00,
2013-03-23 05:50:00,29.5,22.2,29.97,East,100,5.8,8.3,74,0.00,,,0.00,VWS V12.08,2013-03-23 04:50:00,
2013-03-23 05:55:00,29.5,21.9,29.97,ESE,116,4.0,8.3,73,0.00,,,0.00,VWS V12.08,2013-03-23 04:55:00,
2013-03-23 06:00:00,29.5,21.6,29.97,East,85,7.6,8.1,72,0.00,,,0.00,VWS V12.08,2013-03-23 05:00:00,
2013-03-23 06:05:00,29.3,21.4,29.97,SE,137,3.1,8.1,72,0.00,,,0.00,VWS V12.08,2013-03-23 05:05:00,
2013-03-23 06:10:00,29.3,21.1,29.97,East,101,5.4,8.1,71,0.00,,,0.00,VWS V12.08,2013-03-23 05:10:00,
2013-03-23 06:15:00,29.3,21.1,29.97,ENE,68,7.6,9.6,71,0.00,,,0.00,VWS V12.08,2013-03-23 05:15:00,
2013-03-23 06:20:00,29.3,20.7,29.97,East,84,5.4,5.4,70,0.00,,,0.00,VWS V12.08,2013-03-23 05:20:00,
2013-03-23 06:25:00,29.3,20.7,29.97,East,90,5.4,8.1,70,0.00,,,0.00,VWS V12.08,2013-03-23 05:25:00,
2013-03-23 06:30:00,29.3,20.4,29.97,East,98,8.3,8.3,69,0.00,,,0.00,VWS V12.08,2013-03-23 05:30:00,
2013-03-23 06:35:00,29.3,20.4,29.97,East,89,4.9,8.3,69,0.00,,,0.00,VWS V12.08,2013-03-23 05:35:00,
2013-03-23 06:40:00,29.1,19.9,29.97,SE,124,3.6,5.4,68,0.00,,,0.00,VWS V12.08,2013-03-23 05:40:00,
2013-03-23 06:45:00,29.1,19.9,29.97,East,98,5.8,7.6,68,0.00,,,0.00,VWS V12.08,2013-03-23 05:45:00,
2013-03-23 06:50:00,29.1,19.5,30.00,ENE,71,5.4,7.6,67,0.00,,,0.00,VWS V12.08,2013-03-23 05:50:00,
2013-03-23 06:55:00,29.1,19.5,30.00,ESE,110,6.3,8.7,67,0.00,,,0.00,VWS V12.08,2013-03-23 05:55:00,
2013-03-23 07:00:00,29.3,19.7,30.00,ESE,123,4.0,4.0,67,0.00,,,0.00,VWS V12.08,2013-03-23 06:00:00,
2013-03-23 07:05:00,29.3,19.7,30.00,East,91,4.0,7.6,67,0.00,,,0.00,VWS V12.08,2013-03-23 06:05:00,
2013-03-23 07:10:00,29.3,19.7,30.00,ESE,105,2.7,4.9,67,0.00,,,0.00,VWS V12.08,2013-03-23 06:10:00,
2013-03-23 07:15:00,29.3,19.4,30.00,ESE,110,4.0,7.6,66,0.00,,,0.00,VWS V12.08,2013-03-23 06:15:00,
2013-03-23 07:20:00,29.3,19.4,30.00,SE,129,3.1,7.6,66,0.00,,,0.00,VWS V12.08,2013-03-23 06:20:00,
2013-03-23 07:25:00,29.3,19.4,30.00,ESE,106,3.1,6.3,66,0.00,,,0.00,VWS V12.08,2013-03-23 06:25:00,
2013-03-23 07:30:00,29.5,19.5,30.00,SE,138,3.6,7.6,66,0.00,,,0.00,VWS V12.08,2013-03-23 06:30:00,
2013-03-23 07:35:00,29.5,19.5,30.00,ENE,75,3.1,6.7,66,0.00,,,0.00,VWS V12.08,2013-03-23 06:35:00,
2013-03-23 07:40:00,29.5,19.5,30.00,SE,139,2.7,2.7,66,0.00,,,0.00,VWS V12.08,2013-03-23 06:40:00,
2013-03-23 07:45:00,29.5,19.5,30.00,East,100,0.0,5.8,66,0.00,,,0.00,VWS V12.08,2013-03-23 06:45:00,
2013-03-23 07:50:00,29.5,19.2,30.00,NE,43,3.6,5.8,65,0.00,,,0.00,VWS V12.08,2013-03-23 06:50:00,
2013-03-23 07:55:00,29.5,19.2,30.00,SE,139,3.6,8.3,65,0.00,,,0.00,VWS V12.08,2013-03-23 06:55:00,
2013-03-23 08:00:00,29.1,18.1,30.00,ESE,123,2.7,2.7,63,0.00,,,0.00,VWS V12.08,2013-03-23 07:00:00,
2013-03-23 08:05:00,28.9,17.6,30.00,ESE,122,7.6,7.6,62,0.00,,,0.00,VWS V12.08,2013-03-23 07:05:00,
2013-03-23 08:10:00,28.9,17.2,30.00,ESE,113,5.4,7.6,61,0.00,,,0.00,VWS V12.08,2013-03-23 07:10:00,
2013-03-23 08:15:00,28.9,17.2,30.00,ESE,122,5.8,7.6,61,0.00,,,0.00,VWS V12.08,2013-03-23 07:15:00,
2013-03-23 08:20:00,28.9,17.2,30.00,SE,124,6.3,7.2,61,0.00,,,0.00,VWS V12.08,2013-03-23 07:20:00,
2013-03-23 08:25:00,28.9,17.2,30.00,SSE,155,2.7,7.2,61,0.00,,,0.00,VWS V12.08,2013-03-23 07:25:00,
2013-03-23 08:30:00,29.1,17.4,30.00,SE,126,4.0,4.0,61,0.00,,,0.00,VWS V12.08,2013-03-23 07:30:00,
2013-03-23 08:35:00,29.3,17.5,30.00,NE,49,4.9,8.1,61,0.00,,,0.00,VWS V12.08,2013-03-23 07:35:00,
2013-03-23 08:40:00,29.3,17.5,30.00,East,98,3.6,8.1,61,0.00,,,0.00,VWS V12.08,2013-03-23 07:40:00,
2013-03-23 08:45:00,29.5,17.7,30.00,East,100,5.8,7.6,61,0.00,,,0.00,VWS V12.08,2013-03-23 07:45:00,
2013-03-23 08:50:00,29.7,17.9,30.00,ESE,105,3.6,3.6,61,0.00,,,0.00,VWS V12.08,2013-03-23 07:50:00,
2013-03-23 08:55:00,29.7,17.9,30.00,ESE,115,3.1,6.7,61,0.00,,,0.00,VWS V12.08,2013-03-23 07:55:00,
2013-03-23 09:00:00,29.7,17.9,30.00,SE,128,4.9,5.8,61,0.00,,,0.00,VWS V12.08,2013-03-23 08:00:00,
2013-03-23 09:05:00,29.7,17.9,30.03,ESE,113,6.3,6.3,61,0.00,,,0.00,VWS V12.08,2013-03-23 08:05:00,
2013-03-23 09:10:00,29.5,17.7,30.03,ESE,119,3.1,3.6,61,0.00,,,0.00,VWS V12.08,2013-03-23 08:10:00,
2013-03-23 09:15:00,29.7,17.9,30.03,SE,134,4.0,5.8,61,0.00,,,0.00,VWS V12.08,2013-03-23 08:15:00,
2013-03-23 09:20:00,29.7,17.9,30.03,SE,130,5.4,5.4,61,0.00,,,0.00,VWS V12.08,2013-03-23 08:20:00,
2013-03-23 09:25:00,29.8,18.0,30.03,SE,130,4.0,7.6,61,0.00,,,0.00,VWS V12.08,2013-03-23 08:25:00,
2013-03-23 09:30:00,29.8,18.0,30.03,SE,144,3.1,7.6,61,0.00,,,0.00,VWS V12.08,2013-03-23 08:30:00,
2013-03-23 09:35:00,30.0,18.2,30.03,ESE,107,4.9,6.7,61,0.00,,,0.00,VWS V12.08,2013-03-23 08:35:00,
2013-03-23 09:40:00,30.0,18.2,30.03,SE,126,7.6,7.6,61,0.00,,,0.00,VWS V12.08,2013-03-23 08:40:00,
2013-03-23 09:45:00,30.2,18.4,30.03,SE,136,3.6,8.1,61,0.00,,,0.00,VWS V12.08,2013-03-23 08:45:00,
2013-03-23 09:50:00,30.2,18.4,30.03,ESE,102,8.3,8.3,61,0.00,,,0.00,VWS V12.08,2013-03-23 08:50:00,
2013-03-23 09:55:00,30.0,18.2,30.03,ESE,115,5.4,8.3,61,0.00,,,0.00,VWS V12.08,2013-03-23 08:55:00,
2013-03-23 10:00:00,30.2,18.4,30.03,ESE,120,8.1,8.3,61,0.00,,,0.00,VWS V12.08,2013-03-23 09:00:00,
2013-03-23 10:05:00,30.2,18.4,30.03,ESE,110,2.7,8.1,61,0.00,,,0.00,VWS V12.08,2013-03-23 09:05:00,
2013-03-23 10:10:00,30.4,18.6,30.03,ESE,102,6.3,8.1,61,0.00,,,0.00,VWS V12.08,2013-03-23 09:10:00,
2013-03-23 10:15:00,30.2,18.0,30.03,SE,140,5.4,6.7,60,0.00,,,0.00,VWS V12.08,2013-03-23 09:15:00,
2013-03-23 10:20:00,30.2,18.0,30.03,ESE,106,3.1,6.7,60,0.00,,,0.00,VWS V12.08,2013-03-23 09:20:00,
2013-03-23 10:25:00,30.2,18.0,30.03,ESE,119,2.7,5.8,60,0.00,,,0.00,VWS V12.08,2013-03-23 09:25:00,
2013-03-23 10:30:00,30.2,18.0,30.03,East,84,2.7,7.6,60,0.00,,,0.00,VWS V12.08,2013-03-23 09:30:00,
2013-03-23 10:35:00,30.4,17.8,30.03,SE,131,3.6,5.4,59,0.00,,,0.00,VWS V12.08,2013-03-23 09:35:00,
2013-03-23 10:40:00,30.6,18.0,30.03,SSE,148,5.4,5.4,59,0.00,,,0.00,VWS V12.08,2013-03-23 09:40:00,
2013-03-23 10:45:00,30.7,18.1,30.03,SE,131,7.6,7.6,59,0.00,,,0.00,VWS V12.08,2013-03-23 09:45:00,
2013-03-23 10:50:00,30.7,18.1,30.03,South,180,4.0,8.3,59,0.00,,,0.00,VWS V12.08,2013-03-23 09:50:00,
2013-03-23 10:55:00,30.9,18.7,30.03,SE,130,6.3,9.6,60,0.00,,,0.00,VWS V12.08,2013-03-23 09:55:00,
2013-03-23 11:00:00,30.9,18.7,30.03,SE,143,2.7,9.6,60,0.00,,,0.00,VWS V12.08,2013-03-23 10:00:00,
2013-03-23 11:05:00,30.9,18.7,30.03,SSE,163,4.0,8.1,60,0.00,,,0.00,VWS V12.08,2013-03-23 10:05:00,
2013-03-23 11:10:00,31.1,18.9,30.03,ESE,122,6.3,8.7,60,0.00,,,0.00,VWS V12.08,2013-03-23 10:10:00,
2013-03-23 11:15:00,31.3,19.4,30.03,SE,129,3.6,8.3,61,0.00,,,0.00,VWS V12.08,2013-03-23 10:15:00,
2013-03-23 11:20:00,31.3,19.4,30.03,SSE,149,6.3,8.3,61,0.00,,,0.00,VWS V12.08,2013-03-23 10:20:00,
2013-03-23 11:25:00,31.1,19.2,30.03,SE,146,5.4,6.3,61,0.00,,,0.00,VWS V12.08,2013-03-23 10:25:00,
2013-03-23 11:30:00,31.1,19.2,30.03,SSE,162,4.0,6.3,61,0.00,,,0.00,VWS V12.08,2013-03-23 10:30:00,
2013-03-23 11:35:00,31.1,19.2,30.03,SE,129,4.9,7.6,61,0.00,,,0.00,VWS V12.08,2013-03-23 10:35:00,
2013-03-23 11:40:00,31.3,19.4,30.03,ESE,116,2.7,7.6,61,0.00,,,0.00,VWS V12.08,2013-03-23 10:40:00,
2013-03-23 11:45:00,31.5,19.2,30.03,SE,139,2.7,5.8,60,0.00,,,0.00,VWS V12.08,2013-03-23 10:45:00,
2013-03-23 11:50:00,31.6,19.4,30.03,SE,129,4.0,5.8,60,0.00,,,0.00,VWS V12.08,2013-03-23 10:50:00,
2013-03-23 11:55:00,31.8,19.5,30.03,SSE,152,3.6,5.8,60,0.00,,,0.00,VWS V12.08,2013-03-23 10:55:00,
2013-03-23 12:00:00,32.0,19.7,30.03,East,91,3.6,5.8,60,0.00,,,0.00,VWS V12.08,2013-03-23 11:00:00,
2013-03-23 12:05:00,32.0,19.7,30.00,SE,145,3.6,5.8,60,0.00,,,0.00,VWS V12.08,2013-03-23 11:05:00,
2013-03-23 12:10:00,32.0,19.7,30.00,SE,131,5.8,6.3,60,0.00,,,0.00,VWS V12.08,2013-03-23 11:10:00,
2013-03-23 12:15:00,31.8,19.1,30.00,SSE,167,3.1,6.3,59,0.00,,,0.00,VWS V12.08,2013-03-23 11:15:00,
2013-03-23 12:20:00,32.0,19.3,30.03,SE,138,4.0,6.3,59,0.00,,,0.00,VWS V12.08,2013-03-23 11:20:00,
2013-03-23 12:25:00,32.0,19.3,30.03,SE,139,4.9,6.3,59,0.00,,,0.00,VWS V12.08,2013-03-23 11:25:00,
2013-03-23 12:30:00,32.2,19.5,30.03,East,88,4.0,6.3,59,0.00,,,0.00,VWS V12.08,2013-03-23 11:30:00,
2013-03-23 12:35:00,32.5,19.8,30.03,ESE,122,2.7,4.0,59,0.00,,,0.00,VWS V12.08,2013-03-23 11:35:00,
2013-03-23 12:40:00,32.7,20.0,30.03,SE,128,3.1,4.0,59,0.00,,,0.00,VWS V12.08,2013-03-23 11:40:00,
2013-03-23 12:45:00,33.1,20.3,30.03,SE,134,3.6,5.4,59,0.00,,,0.00,VWS V12.08,2013-03-23 11:45:00,
2013-03-23 12:50:00,32.9,20.2,30.03,SE,126,4.0,5.4,59,0.00,,,0.00,VWS V12.08,2013-03-23 11:50:00,
2013-03-23 12:55:00,32.7,20.0,30.03,East,82,4.0,4.0,59,0.00,,,0.00,VWS V12.08,2013-03-23 11:55:00,
2013-03-23 13:00:00,32.7,20.0,30.03,ESE,117,4.0,4.0,59,0.00,,,0.00,VWS V12.08,2013-03-23 12:00:00,
2013-03-23 13:05:00,32.7,20.0,30.03,East,83,2.2,4.0,59,0.00,,,0.00,VWS V12.08,2013-03-23 12:05:00,
2013-03-23 13:10:00,32.7,20.0,30.03,ESE,121,2.7,4.9,59,0.00,,,0.00,VWS V12.08,2013-03-23 12:10:00,
2013-03-23 13:15:00,32.7,20.0,30.03,East,98,3.6,4.5,59,0.00,,,0.00,VWS V12.08,2013-03-23 12:15:00,
2013-03-23 13:20:00,32.9,20.2,30.03,SSE,158,4.9,5.8,59,0.00,,,0.00,VWS V12.08,2013-03-23 12:20:00,
2013-03-23 13:25:00,32.7,20.0,30.03,ESE,113,2.7,5.8,59,0.00,,,0.00,VWS V12.08,2013-03-23 12:25:00,
2013-03-23 13:30:00,32.9,20.2,30.03,SE,144,3.6,5.8,59,0.00,,,0.00,VWS V12.08,2013-03-23 12:30:00,
2013-03-23 13:35:00,33.1,20.3,30.03,SE,138,2.2,4.9,59,0.00,,,0.00,VWS V12.08,2013-03-23 12:35:00,
2013-03-23 13:40:00,33.1,20.3,30.03,East,85,0.0,4.9,59,0.00,,,0.00,VWS V12.08,2013-03-23 12:40:00,
2013-03-23 13:45:00,33.3,20.5,30.03,ESE,117,4.0,4.0,59,0.00,,,0.00,VWS V12.08,2013-03-23 12:45:00,
2013-03-23 13:50:00,33.3,20.5,30.00,ESE,109,2.2,4.0,59,0.00,,,0.00,VWS V12.08,2013-03-23 12:50:00,
2013-03-23 13:55:00,33.6,20.8,30.00,East,87,0.0,4.0,59,0.00,,,0.00,VWS V12.08,2013-03-23 12:55:00,
2013-03-23 14:00:00,33.6,20.8,30.00,SE,125,3.1,4.9,59,0.00,,,0.00,VWS V12.08,2013-03-23 13:00:00,
2013-03-23 14:05:00,33.4,20.7,30.03,SE,125,2.7,4.9,59,0.00,,,0.00,VWS V12.08,2013-03-23 13:05:00,
2013-03-23 14:09:00,33.3,20.5,30.03,SE,134,0.0,4.9,59,0.00,,,0.00,VWS V12.08,2013-03-23 13:09:00,
2013-03-23 14:14:00,33.4,20.7,30.03,East,100,2.2,3.1,59,0.00,,,0.00,VWS V12.08,2013-03-23 13:14:00,
2013-03-23 14:19:00,33.6,20.8,30.03,NE,51,3.1,4.0,59,0.00,,,0.00,VWS V12.08,2013-03-23 13:19:00,
2013-03-23 14:24:00,33.6,20.8,30.03,NNE,22,2.7,4.0,59,0.00,,,0.00,VWS V12.08,2013-03-23 13:24:00,
2013-03-23 14:29:00,33.6,20.8,30.03,NE,49,0.0,4.0,59,0.00,,,0.00,VWS V12.08,2013-03-23 13:29:00,
2013-03-23 14:34:00,33.6,20.8,30.03,ESE,114,3.1,3.1,59,0.00,,,0.00,VWS V12.08,2013-03-23 13:34:00,
2013-03-23 14:39:00,33.6,20.8,30.03,East,88,2.7,3.6,59,0.00,,,0.00,VWS V12.08,2013-03-23 13:39:00,
2013-03-23 14:44:00,33.6,20.8,30.03,ENE,70,3.1,3.6,59,0.00,,,0.00,VWS V12.08,2013-03-23 13:44:00,
2013-03-23 14:49:00,33.6,20.8,30.03,NNE,25,2.7,3.6,59,0.00,,,0.00,VWS V12.08,2013-03-23 13:49:00,
2013-03-23 14:54:00,33.6,20.8,30.03,ENE,57,3.1,4.0,59,0.00,,,0.00,VWS V12.08,2013-03-23 13:54:00,
2013-03-23 14:59:00,33.6,20.8,30.03,ESE,105,3.1,4.0,59,0.00,,,0.00,VWS V12.08,2013-03-23 13:59:00,
2013-03-23 15:04:00,33.4,20.7,30.03,ENE,73,2.7,4.0,59,0.00,,,0.00,VWS V12.08,2013-03-23 14:04:00,
2013-03-23 15:09:00,33.4,20.7,30.03,NE,41,2.7,4.0,59,0.00,,,0.00,VWS V12.08,2013-03-23 14:09:00,
2013-03-23 15:14:00,33.4,20.7,30.03,ENE,61,0.0,3.1,59,0.00,,,0.00,VWS V12.08,2013-03-23 14:14:00,
2013-03-23 15:19:00,33.4,20.7,30.00,ENE,74,2.2,3.1,59,0.00,,,0.00,VWS V12.08,2013-03-23 14:19:00,
2013-03-23 15:24:00,33.4,20.7,30.00,East,79,2.2,3.1,59,0.00,,,0.00,VWS V12.08,2013-03-23 14:24:00,
2013-03-23 15:29:00,33.4,20.7,30.00,East,80,4.0,4.0,59,0.00,,,0.00,VWS V12.08,2013-03-23 14:29:00,
2013-03-23 15:34:00,33.4,21.1,30.00,ENE,72,3.1,4.0,60,0.00,,,0.00,VWS V12.08,2013-03-23 14:34:00,
2013-03-23 15:39:00,33.3,20.9,30.00,NE,55,0.0,4.0,60,0.00,,,0.00,VWS V12.08,2013-03-23 14:39:00,
2013-03-23 15:44:00,33.3,20.9,30.00,East,84,2.7,3.6,60,0.00,,,0.00,VWS V12.08,2013-03-23 14:44:00,
2013-03-23 15:49:00,33.1,20.7,30.00,East,84,0.0,3.6,60,0.00,,,0.00,VWS V12.08,2013-03-23 14:49:00,
2013-03-23 15:54:00,33.1,20.7,30.00,East,84,2.2,2.7,60,0.00,,,0.00,VWS V12.08,2013-03-23 14:54:00,
2013-03-23 15:59:00,33.1,20.7,30.00,East,84,0.0,2.7,60,0.00,,,0.00,VWS V12.08,2013-03-23 14:59:00,
2013-03-23 16:05:00,33.1,20.7,30.00,East,84,2.2,3.1,60,0.00,,,0.00,VWS V12.08,2013-03-23 15:05:00,
2013-03-23 16:10:00,33.1,20.7,30.00,ESE,113,2.7,2.7,60,0.00,,,0.00,VWS V12.08,2013-03-23 15:10:00,
2013-03-23 16:15:00,33.1,20.7,30.00,East,93,2.7,4.0,60,0.00,,,0.00,VWS V12.08,2013-03-23 15:15:00,
2013-03-23 16:20:00,32.9,20.5,30.00,East,92,3.1,3.1,60,0.00,,,0.00,VWS V12.08,2013-03-23 15:20:00,
2013-03-23 16:25:00,32.7,20.4,30.00,East,86,3.6,3.6,60,0.00,,,0.00,VWS V12.08,2013-03-23 15:25:00,
2013-03-23 16:30:00,32.7,20.4,30.00,East,94,2.2,2.2,60,0.00,,,0.00,VWS V12.08,2013-03-23 15:30:00,
2013-03-23 16:35:00,32.7,20.4,30.00,East,97,0.0,3.1,60,0.00,,,0.00,VWS V12.08,2013-03-23 15:35:00,
2013-03-23 16:40:00,32.7,20.4,30.00,ENE,77,3.6,3.6,60,0.00,,,0.00,VWS V12.08,2013-03-23 15:40:00,
2013-03-23 16:45:00,32.7,20.4,30.00,East,86,2.7,3.6,60,0.00,,,0.00,VWS V12.08,2013-03-23 15:45:00,
2013-03-23 16:50:00,32.7,20.4,30.00,East,85,2.7,3.6,60,0.00,,,0.00,VWS V12.08,2013-03-23 15:50:00,
2013-03-23 16:55:00,32.5,20.2,30.00,East,85,2.2,3.6,60,0.00,,,0.00,VWS V12.08,2013-03-23 15:55:00,
2013-03-23 17:00:00,32.5,20.2,30.00,East,83,0.0,0.0,60,0.00,,,0.00,VWS V12.08,2013-03-23 16:00:00,
2013-03-23 17:05:00,32.2,19.9,30.00,East,84,0.0,3.6,60,0.00,,,0.00,VWS V12.08,2013-03-23 16:05:00,
2013-03-23 17:10:00,32.2,19.9,30.00,East,84,0.0,0.0,60,0.00,,,0.00,VWS V12.08,2013-03-23 16:10:00,
2013-03-23 17:15:00,31.8,19.5,30.00,East,84,0.0,2.7,60,0.00,,,0.00,VWS V12.08,2013-03-23 16:15:00,
2013-03-23 17:20:00,31.5,19.2,30.00,East,83,0.0,0.0,60,0.00,,,0.00,VWS V12.08,2013-03-23 16:20:00,
2013-03-23 17:25:00,31.1,19.2,30.00,East,83,0.0,0.0,61,0.00,,,0.00,VWS V12.08,2013-03-23 16:25:00,
2013-03-23 17:30:00,30.9,19.1,30.00,East,84,0.0,0.0,61,0.00,,,0.00,VWS V12.08,2013-03-23 16:30:00,
2013-03-23 17:35:00,30.6,18.7,30.00,East,84,0.0,2.2,61,0.00,,,0.00,VWS V12.08,2013-03-23 16:35:00,
2013-03-23 17:40:00,30.4,18.6,30.00,East,83,0.0,2.2,61,0.00,,,0.00,VWS V12.08,2013-03-23 16:40:00,
2013-03-23 17:45:00,30.2,18.4,30.00,East,83,0.0,0.0,61,0.00,,,0.00,VWS V12.08,2013-03-23 16:45:00,
2013-03-23 17:50:00,30.0,18.6,30.03,East,84,0.0,0.0,62,0.00,,,0.00,VWS V12.08,2013-03-23 16:50:00,
2013-03-23 17:55:00,29.8,18.4,30.03,East,84,2.2,2.7,62,0.00,,,0.00,VWS V12.08,2013-03-23 16:55:00,
2013-03-23 18:00:00,30.0,18.6,30.03,East,83,0.0,3.6,62,0.00,,,0.00,VWS V12.08,2013-03-23 17:00:00,
2013-03-23 18:05:00,30.0,18.6,30.03,East,83,0.0,0.0,62,0.00,,,0.00,VWS V12.08,2013-03-23 17:05:00,
2013-03-23 18:10:00,29.8,18.8,30.03,East,84,0.0,0.0,63,0.00,,,0.00,VWS V12.08,2013-03-23 17:10:00,
2013-03-23 18:15:00,29.5,18.5,30.03,East,83,0.0,0.0,63,0.00,,,0.00,VWS V12.08,2013-03-23 17:15:00,
2013-03-23 18:20:00,29.1,18.1,30.03,East,84,0.0,0.0,63,0.00,,,0.00,VWS V12.08,2013-03-23 17:20:00,
2013-03-23 18:25:00,28.6,17.6,30.03,East,84,0.0,0.0,63,0.00,,,0.00,VWS V12.08,2013-03-23 17:25:00,
2013-03-23 18:30:00,28.0,17.1,30.03,East,84,0.0,0.0,63,0.00,,,0.00,VWS V12.08,2013-03-23 17:30:00,
2013-03-23 18:35:00,27.9,17.3,30.03,East,84,0.0,0.0,64,0.00,,,0.00,VWS V12.08,2013-03-23 17:35:00,
2013-03-23 18:40:00,27.9,17.3,30.03,East,84,0.0,0.0,64,0.00,,,0.00,VWS V12.08,2013-03-23 17:40:00,
2013-03-23 18:45:00,27.9,17.6,30.03,East,83,0.0,0.0,65,0.00,,,0.00,VWS V12.08,2013-03-23 17:45:00,
2013-03-23 18:50:00,27.9,17.6,30.03,East,84,0.0,0.0,65,0.00,,,0.00,VWS V12.08,2013-03-23 17:50:00,
2013-03-23 18:55:00,28.0,17.8,30.03,East,83,0.0,0.0,65,0.00,,,0.00,VWS V12.08,2013-03-23 17:55:00,
2013-03-23 19:00:00,28.0,18.2,30.03,East,84,0.0,0.0,66,0.00,,,0.00,VWS V12.08,2013-03-23 18:00:00,
2013-03-23 19:05:00,28.0,18.2,30.03,East,83,0.0,0.0,66,0.00,,,0.00,VWS V12.08,2013-03-23 18:05:00,
2013-03-23 19:10:00,27.7,17.8,30.03,East,84,0.0,0.0,66,0.00,,,0.00,VWS V12.08,2013-03-23 18:10:00,
2013-03-23 19:15:00,27.5,17.6,30.03,East,84,0.0,0.0,66,0.00,,,0.00,VWS V12.08,2013-03-23 18:15:00,
2013-03-23 19:20:00,27.3,17.8,30.03,East,84,0.0,0.0,67,0.00,,,0.00,VWS V12.08,2013-03-23 18:20:00,
2013-03-23 19:25:00,27.3,17.8,30.03,East,83,0.0,0.0,67,0.00,,,0.00,VWS V12.08,2013-03-23 18:25:00,
2013-03-23 19:30:00,27.1,17.6,30.03,East,83,0.0,0.0,67,0.00,,,0.00,VWS V12.08,2013-03-23 18:30:00,
2013-03-23 19:35:00,27.0,17.8,30.03,East,83,0.0,0.0,68,0.00,,,0.00,VWS V12.08,2013-03-23 18:35:00,
2013-03-23 19:40:00,27.0,17.8,30.03,East,84,0.0,0.0,68,0.00,,,0.00,VWS V12.08,2013-03-23 18:40:00,
2013-03-23 19:45:00,27.0,18.2,30.03,East,84,0.0,2.7,69,0.00,,,0.00,VWS V12.08,2013-03-23 18:45:00,
2013-03-23 19:50:00,27.1,18.3,30.03,East,83,0.0,2.7,69,0.00,,,0.00,VWS V12.08,2013-03-23 18:50:00,
2013-03-23 19:55:00,27.3,18.5,30.03,East,83,0.0,0.0,69,0.00,,,0.00,VWS V12.08,2013-03-23 18:55:00,
2013-03-23 20:00:00,27.3,18.5,30.03,East,84,0.0,0.0,69,0.00,,,0.00,VWS V12.08,2013-03-23 19:00:00,
2013-03-23 20:05:00,27.3,18.5,30.06,East,84,0.0,0.0,69,0.00,,,0.00,VWS V12.08,2013-03-23 19:05:00,
2013-03-23 20:10:00,27.3,18.8,30.06,East,84,2.2,2.7,70,0.00,,,0.00,VWS V12.08,2013-03-23 19:10:00,
2013-03-23 20:15:00,27.3,18.8,30.06,East,84,0.0,2.2,70,0.00,,,0.00,VWS V12.08,2013-03-23 19:15:00,
2013-03-23 20:20:00,27.3,18.8,30.06,East,83,0.0,2.2,70,0.00,,,0.00,VWS V12.08,2013-03-23 19:20:00,
2013-03-23 20:25:00,27.1,18.7,30.06,East,83,0.0,0.0,70,0.00,,,0.00,VWS V12.08,2013-03-23 19:25:00,
2013-03-23 20:30:00,27.1,18.7,30.06,East,83,0.0,0.0,70,0.00,,,0.00,VWS V12.08,2013-03-23 19:30:00,
2013-03-23 20:35:00,27.0,18.5,30.06,East,83,0.0,0.0,70,0.00,,,0.00,VWS V12.08,2013-03-23 19:35:00,
2013-03-23 20:40:00,27.0,18.5,30.06,East,84,0.0,0.0,70,0.00,,,0.00,VWS V12.08,2013-03-23 19:40:00,
2013-03-23 20:45:00,27.0,18.8,30.06,East,84,0.0,0.0,71,0.00,,,0.00,VWS V12.08,2013-03-23 19:45:00,
2013-03-23 20:50:00,27.0,18.8,30.06,East,84,0.0,0.0,71,0.00,,,0.00,VWS V12.08,2013-03-23 19:50:00,
2013-03-23 20:55:00,27.0,18.8,30.06,East,83,0.0,0.0,71,0.00,,,0.00,VWS V12.08,2013-03-23 19:55:00,
2013-03-23 21:00:00,27.0,18.8,30.06,East,83,0.0,0.0,71,0.00,,,0.00,VWS V12.08,2013-03-23 20:00:00,
2013-03-23 21:05:00,27.0,18.8,30.06,East,83,0.0,0.0,71,0.00,,,0.00,VWS V12.08,2013-03-23 20:05:00,
2013-03-23 21:10:00,26.8,18.6,30.06,East,84,0.0,0.0,71,0.00,,,0.00,VWS V12.08,2013-03-23 20:10:00,
2013-03-23 21:15:00,26.6,18.8,30.06,East,84,0.0,0.0,72,0.00,,,0.00,VWS V12.08,2013-03-23 20:15:00,
2013-03-23 21:20:00,26.6,18.8,30.06,East,83,0.0,2.2,72,0.00,,,0.00,VWS V12.08,2013-03-23 20:20:00,
2013-03-23 21:25:00,26.4,18.6,30.06,East,84,0.0,2.7,72,0.00,,,0.00,VWS V12.08,2013-03-23 20:25:00,
2013-03-23 21:30:00,26.6,19.1,30.06,East,83,0.0,2.7,73,0.00,,,0.00,VWS V12.08,2013-03-23 20:30:00,
2013-03-23 21:35:00,26.8,19.0,30.06,East,83,0.0,2.7,72,0.00,,,0.00,VWS V12.08,2013-03-23 20:35:00,
2013-03-23 21:40:00,27.0,19.5,30.06,East,83,2.2,3.1,73,0.00,,,0.00,VWS V12.08,2013-03-23 20:40:00,
2013-03-23 21:45:00,27.0,19.5,30.06,East,84,0.0,2.7,73,0.00,,,0.00,VWS V12.08,2013-03-23 20:45:00,
2013-03-23 21:50:00,27.1,19.6,30.06,East,83,0.0,2.7,73,0.00,,,0.00,VWS V12.08,2013-03-23 20:50:00,
2013-03-23 21:55:00,27.5,20.0,30.06,East,83,2.7,3.1,73,0.00,,,0.00,VWS V12.08,2013-03-23 20:55:00,
2013-03-23 22:00:00,27.9,20.7,30.06,ENE,66,3.6,9.2,74,0.00,,,0.00,VWS V12.08,2013-03-23 21:00:00,
2013-03-23 22:05:00,28.6,21.4,30.06,ENE,76,4.0,7.6,74,0.00,,,0.00,VWS V12.08,2013-03-23 21:05:00,
2013-03-23 22:10:00,28.8,21.5,30.06,ESE,103,3.1,7.6,74,0.00,,,0.00,VWS V12.08,2013-03-23 21:10:00,
2013-03-23 22:15:00,29.1,21.6,30.06,East,92,3.1,8.1,73,0.00,,,0.00,VWS V12.08,2013-03-23 21:15:00,
2013-03-23 22:20:00,29.1,21.6,30.06,ENE,75,5.8,8.1,73,0.00,,,0.00,VWS V12.08,2013-03-23 21:20:00,
2013-03-23 22:25:00,29.3,21.7,30.06,NE,40,4.9,8.7,73,0.00,,,0.00,VWS V12.08,2013-03-23 21:25:00,
2013-03-23 22:30:00,29.3,21.4,30.06,East,101,3.6,8.7,72,0.00,,,0.00,VWS V12.08,2013-03-23 21:30:00,
2013-03-23 22:35:00,29.3,21.4,30.06,ENE,74,6.3,10.1,72,0.00,,,0.00,VWS V12.08,2013-03-23 21:35:00,
2013-03-23 22:40:00,29.1,20.9,30.06,SE,125,6.3,10.1,71,0.00,,,0.00,VWS V12.08,2013-03-23 21:40:00,
2013-03-23 22:45:00,29.1,20.6,30.06,NE,52,5.4,8.3,70,0.00,,,0.00,VWS V12.08,2013-03-23 21:45:00,
2013-03-23 22:50:00,28.9,20.4,30.06,East,90,3.6,8.7,70,0.00,,,0.00,VWS V12.08,2013-03-23 21:50:00,
2013-03-23 22:55:00,28.8,19.9,30.06,ENE,64,7.6,8.7,69,0.00,,,0.00,VWS V12.08,2013-03-23 21:55:00,
2013-03-23 23:00:00,28.6,19.4,30.06,NE,45,8.1,8.7,68,0.00,,,0.00,VWS V12.08,2013-03-23 22:00:00,
2013-03-23 23:04:00,28.6,19.0,30.06,ENE,62,5.4,9.2,67,0.00,,,0.00,VWS V12.08,2013-03-23 22:04:00,
2013-03-23 23:09:00,28.4,18.9,30.06,East,84,5.4,9.2,67,0.00,,,0.00,VWS V12.08,2013-03-23 22:09:00,
2013-03-23 23:14:00,28.2,18.3,30.06,East,85,4.9,9.2,66,0.00,,,0.00,VWS V12.08,2013-03-23 22:14:00,
2013-03-23 23:19:00,28.0,17.8,30.06,East,90,8.1,9.6,65,0.00,,,0.00,VWS V12.08,2013-03-23 22:19:00,
2013-03-23 23:24:00,27.7,17.1,30.06,East,82,5.4,8.7,64,0.00,,,0.00,VWS V12.08,2013-03-23 22:24:00,
2013-03-23 23:29:00,27.5,16.6,30.06,ESE,105,4.0,11.0,63,0.00,,,0.00,VWS V12.08,2013-03-23 22:29:00,
2013-03-23 23:34:00,27.1,15.9,30.06,East,95,3.6,11.0,62,0.00,,,0.00,VWS V12.08,2013-03-23 22:34:00,
2013-03-23 23:39:00,27.0,15.3,30.06,ENE,66,8.1,11.0,61,0.00,,,0.00,VWS V12.08,2013-03-23 22:39:00,
2013-03-23 23:44:00,26.8,14.8,30.06,East,81,10.1,10.1,60,0.00,,,0.00,VWS V12.08,2013-03-23 22:44:00,
2013-03-23 23:49:00,26.6,14.6,30.06,East,90,5.4,10.1,60,0.00,,,0.00,VWS V12.08,2013-03-23 22:49:00,
2013-03-23 23:54:00,26.4,14.4,30.06,East,88,10.1,10.1,60,0.00,,,0.00,VWS V12.08,2013-03-23 22:54:00,
2013-03-23 23:59:00,26.4,14.4,30.06,East,79,5.4,10.1,60,0.00,,,0.00,VWS V12.08,2013-03-23 22:59:00,